�������l�o���
Date,Time,MP-1(��Sv/h),MP-2(��Sv/h),MP-3(��Sv/h),MP-4(��Sv/h),MP-5(��Sv/h),MP-6(��Sv/h),MP-7(��Sv/h),MP-8(��Sv/h),����,����(m/s),���J
2018/01/30,00:00,0.807,1.337,0.857,1.547,1.078,0.460,0.833,0.817,�k�k��,9.3,��
2018/01/30,00:10,0.806,1.339,0.857,1.546,1.078,0.461,0.834,0.815,�k�k��,9.7,��
2018/01/30,00:20,0.807,1.339,0.856,1.547,1.075,0.460,0.833,0.816,�k�k��,9.2,��
2018/01/30,00:30,0.806,1.339,0.856,1.547,1.073,0.459,0.832,0.817,�k�k��,9.2,�L
2018/01/30,00:40,0.804,1.337,0.856,1.544,1.076,0.457,0.832,0.816,�k�k��,9.9,��
2018/01/30,00:50,0.807,1.337,0.857,1.543,1.072,0.458,0.830,0.817,�k�k��,8.2,��
2018/01/30,01:00,0.805,1.334,0.856,1.545,1.075,0.459,0.829,0.814,�k�k��,8.0,��
2018/01/30,01:10,0.804,1.337,0.856,1.544,1.073,0.458,0.829,0.816,�k,7.9,��
2018/01/30,01:20,0.805,1.334,0.856,1.545,1.074,0.458,0.828,0.817,�k,8.9,��
2018/01/30,01:30,0.804,1.335,0.857,1.541,1.073,0.459,0.829,0.816,�k,8.1,��
2018/01/30,01:40,0.802,1.333,0.854,1.546,1.074,0.460,0.828,0.815,�k,8.8,��
2018/01/30,01:50,0.806,1.333,0.856,1.544,1.073,0.459,0.829,0.815,�k,7.8,��
2018/01/30,02:00,0.805,1.335,0.853,1.546,1.071,0.459,0.832,0.817,�k,6.5,��
2018/01/30,02:10,0.802,1.335,0.855,1.544,1.073,0.460,0.831,0.817,�k�k��,6.0,��
2018/01/30,02:20,0.801,1.333,0.856,1.545,1.076,0.459,0.831,0.816,�k�k��,5.1,��
2018/01/30,02:30,0.803,1.336,0.855,1.546,1.075,0.460,0.830,0.815,�k�k��,5.1,��
2018/01/30,02:40,0.801,1.334,0.856,1.546,1.073,0.461,0.831,0.816,�k�k��,5.2,��
2018/01/30,02:50,0.804,1.338,0.857,1.542,1.076,0.461,0.829,0.816,�k�k��,4.8,��
2018/01/30,03:00,0.803,1.339,0.858,1.543,1.076,0.459,0.832,0.815,�k�k��,4.3,��
2018/01/30,03:10,0.804,1.337,0.857,1.544,1.076,0.460,0.830,0.815,�k�k��,4.6,��
2018/01/30,03:20,0.802,1.337,0.856,1.545,1.075,0.460,0.833,0.816,�k�k��,3.4,��
2018/01/30,03:30,0.803,1.336,0.855,1.544,1.074,0.461,0.830,0.814,�k��,3.4,��
2018/01/30,03:40,0.803,1.337,0.856,1.543,1.076,0.459,0.831,0.815,�k��,4.9,��
2018/01/30,03:50,0.805,1.337,0.855,1.541,1.076,0.460,0.831,0.816,�k��,5.5,��
2018/01/30,04:00,0.803,1.337,0.855,1.546,1.074,0.459,0.831,0.816,�k��,5.7,��
2018/01/30,04:10,0.804,1.337,0.856,1.543,1.073,0.461,0.831,0.817,�k�k��,5.8,��
2018/01/30,04:20,0.802,1.337,0.855,1.544,1.074,0.460,0.831,0.817,�k��,5.1,��
2018/01/30,04:30,0.801,1.338,0.855,1.546,1.073,0.460,0.831,0.815,�k��,6.6,��
2018/01/30,04:40,0.803,1.338,0.855,1.545,1.073,0.462,0.830,0.816,�k��,7.2,��
2018/01/30,04:50,0.803,1.338,0.854,1.544,1.072,0.460,0.831,0.817,�k��,6.6,��
2018/01/30,05:00,0.803,1.337,0.854,1.543,1.074,0.460,0.831,0.818,�k��,5.5,��
2018/01/30,05:10,0.801,1.337,0.855,1.545,1.074,0.459,0.831,0.815,�k��,5.2,��
2018/01/30,05:20,0.801,1.338,0.855,1.544,1.074,0.460,0.831,0.815,�k��,6.3,��
2018/01/30,05:30,0.801,1.336,0.856,1.545,1.074,0.460,0.831,0.815,�k��,5.4,��
2018/01/30,05:40,0.802,1.336,0.855,1.544,1.074,0.459,0.831,0.817,�k��,7.6,��
2018/01/30,05:50,0.804,1.335,0.856,1.548,1.074,0.458,0.833,0.814,�k��,8.2,��
2018/01/30,06:00,0.803,1.335,0.854,1.546,1.073,0.460,0.833,0.816,�k��,7.7,��
2018/01/30,06:10,0.801,1.335,0.857,1.543,1.073,0.458,0.833,0.817,���k��,7.2,��
2018/01/30,06:20,0.802,1.336,0.855,1.545,1.075,0.459,0.830,0.814,���k��,5.8,��
2018/01/30,06:30,0.802,1.337,0.856,1.544,1.072,0.459,0.831,0.816,�k��,6.6,��
2018/01/30,06:40,0.801,1.334,0.855,1.545,1.071,0.460,0.832,0.815,���k��,7.3,��
2018/01/30,06:50,0.802,1.335,0.854,1.544,1.071,0.460,0.831,0.817,�k��,6.1,��
2018/01/30,07:00,0.802,1.336,0.854,1.544,1.073,0.458,0.832,0.816,�k��,6.7,��
2018/01/30,07:10,0.802,1.336,0.855,1.544,1.072,0.459,0.830,0.815,�k��,7.1,��
2018/01/30,07:20,0.802,1.334,0.855,1.545,1.072,0.459,0.832,0.815,�k��,7.2,��
2018/01/30,07:30,0.802,1.334,0.853,1.545,1.072,0.459,0.834,0.814,�k��,7.9,��
2018/01/30,07:40,0.799,1.335,0.855,1.545,1.070,0.461,0.832,0.817,�k��,7.5,��
2018/01/30,07:50,0.801,1.334,0.854,1.549,1.073,0.457,0.831,0.818,���k��,6.2,��
2018/01/30,08:00,0.801,1.333,0.854,1.546,1.071,0.461,0.832,0.817,���k��,5.5,��
2018/01/30,08:10,0.800,1.333,0.853,1.545,1.073,0.459,0.832,0.816,���k��,4.9,��
2018/01/30,08:20,0.802,1.333,0.853,1.546,1.072,0.459,0.832,0.814,�k��,5.1,��
2018/01/30,08:30,0.802,1.338,0.854,1.547,1.075,0.460,0.834,0.817,�k��,5.6,��
2018/01/30,08:40,0.802,1.336,0.852,1.547,1.074,0.461,0.832,0.818,���k��,3.9,��
2018/01/30,08:50,0.803,1.336,0.855,1.549,1.076,0.460,0.832,0.816,�k��,3.8,��
2018/01/30,09:00,0.803,1.336,0.855,1.545,1.074,0.459,0.832,0.817,���k��,3.1,��
2018/01/30,09:10,0.804,1.334,0.857,1.547,1.074,0.461,0.832,0.816,���k��,4.6,��
2018/01/30,09:20,0.804,1.334,0.856,1.547,1.075,0.458,0.833,0.816,���k��,5.3,��
2018/01/30,09:30,0.804,1.334,0.855,1.546,1.073,0.459,0.832,0.817,�k��,4.7,��
2018/01/30,09:40,0.806,1.337,0.857,1.546,1.075,0.460,0.833,0.816,���k��,4.1,��
2018/01/30,09:50,0.805,1.335,0.858,1.549,1.075,0.460,0.832,0.818,�k��,4.2,��
2018/01/30,10:00,0.806,1.339,0.856,1.547,1.075,0.460,0.832,0.817,���k��,4.1,��
2018/01/30,10:10,0.809,1.337,0.858,1.548,1.077,0.459,0.833,0.817,�k��,4.7,��
2018/01/30,10:20,0.808,1.339,0.859,1.548,1.076,0.459,0.832,0.817,�k�k��,4.4,��
2018/01/30,10:30,0.809,1.338,0.858,1.548,1.077,0.459,0.833,0.818,�k�k��,3.0,��
2018/01/30,10:40,0.810,1.341,0.858,1.545,1.081,0.459,0.833,0.820,�k�k��,3.7,��
2018/01/30,10:50,0.809,1.338,0.858,1.547,1.078,0.458,0.832,0.817,�k�k��,4.6,��
2018/01/30,11:00,0.804,1.336,0.858,1.548,1.079,0.459,0.833,0.818,�k,4.3,��
2018/01/30,11:10,0.810,1.338,0.862,-,1.081,0.462,0.831,0.820,�k,5.6,�L
2018/01/30,11:20,0.811,1.339,0.860,-,1.079,0.460,0.832,0.816,�k,6.2,�L
2018/01/30,11:30,0.811,1.339,0.860,-,1.079,0.462,0.831,0.819,�k�k��,5.4,��
2018/01/30,11:40,0.813,1.342,0.865,-,1.081,0.460,0.831,0.816,�k��,5.9,��
2018/01/30,11:50,0.811,1.342,0.861,-,1.084,0.460,0.833,0.818,�k��,7.0,�L
2018/01/30,12:00,0.812,1.344,0.861,-,1.083,0.460,0.835,0.821,�k�k��,7.9,�L
2018/01/30,12:10,0.815,1.345,0.861,-,1.083,0.460,0.835,0.820,�k�k��,7.5,��
2018/01/30,12:20,0.815,1.341,0.859,-,1.084,0.459,0.834,0.820,�k��,6.6,�L
2018/01/30,12:30,0.811,1.347,0.859,-,1.084,0.460,0.833,0.817,�k��,5.7,��
2018/01/30,12:40,0.813,1.347,0.860,-,1.085,0.459,0.835,0.818,�k��,5.7,��
2018/01/30,12:50,0.812,1.347,0.859,-,1.084,0.460,0.836,0.817,�k��,6.5,��
2018/01/30,13:00,0.812,1.349,0.859,-,1.086,0.462,0.835,0.817,�k��,6.8,��
2018/01/30,13:10,0.814,1.344,0.863,-,1.087,0.460,0.833,0.817,�k��,5.8,��
2018/01/30,13:20,0.816,1.348,0.859,-,1.084,0.460,0.832,0.818,�k��,5.1,��
2018/01/30,13:30,0.815,1.346,0.861,-,1.085,0.460,0.835,0.818,�k��,4.7,��
2018/01/30,13:40,0.815,1.346,0.860,-,1.083,0.462,0.834,0.818,�k��,4.7,��
2018/01/30,13:50,0.814,1.344,0.859,-,1.086,0.462,0.835,0.819,�k��,5.0,��
2018/01/30,14:00,0.815,1.346,0.860,-,1.085,0.460,0.833,0.818,�k��,6.1,��
2018/01/30,14:10,0.815,1.347,0.864,-,1.087,0.461,0.835,0.819,�k��,7.7,�L
2018/01/30,14:20,0.815,1.347,0.865,-,1.086,0.461,0.835,0.818,�k��,6.0,��
2018/01/30,14:30,0.815,1.348,0.863,-,1.086,0.463,0.836,0.819,�k��,5.5,�L
2018/01/30,14:40,0.816,1.348,0.863,-,1.088,0.460,0.834,0.818,�k��,6.2,��
2018/01/30,14:50,0.813,1.349,0.863,-,1.089,0.461,0.834,0.820,�k��,5.2,��
2018/01/30,15:00,0.817,1.349,0.864,-,1.086,0.463,0.833,0.817,�k��,5.4,��
2018/01/30,15:10,0.815,1.350,0.862,-,1.087,0.462,0.836,0.817,�k��,5.0,��
2018/01/30,15:20,0.818,1.351,0.863,-,1.084,0.461,0.835,0.819,�k��,6.0,��
2018/01/30,15:30,0.816,1.351,0.864,1.556,1.087,0.464,0.834,0.819,�k��,5.1,�L
2018/01/30,15:40,0.820,1.352,0.862,1.552,1.086,0.463,0.836,0.819,�k��,3.8,��
2018/01/30,15:50,0.816,1.351,0.864,1.552,1.088,0.463,0.834,0.816,�k��,3.4,��
2018/01/30,16:00,0.817,1.352,0.864,1.556,1.089,0.462,0.835,0.820,�k��,3.6,��
2018/01/30,16:10,0.816,1.351,0.864,1.551,1.087,0.463,0.834,0.819,�k��,4.6,��
2018/01/30,16:20,0.815,1.352,0.865,1.552,1.088,0.463,0.837,0.817,�k��,4.6,��
2018/01/30,16:30,0.816,1.349,0.864,1.554,1.089,0.461,0.836,0.819,���k��,3.6,��
2018/01/30,16:40,0.818,1.355,0.865,1.553,1.089,0.462,0.835,0.817,�k��,4.0,��
2018/01/30,16:50,0.815,1.351,0.864,1.553,1.091,0.462,0.834,0.818,�k��,4.4,��
2018/01/30,17:00,0.815,1.352,0.865,1.554,1.089,0.462,0.835,0.817,�k��,5.0,��
2018/01/30,17:10,0.815,1.353,0.862,1.554,1.088,0.462,0.835,0.818,�k��,5.2,��
2018/01/30,17:20,0.814,1.352,0.864,1.553,1.088,0.461,0.833,0.817,�k��,4.8,��
2018/01/30,17:30,0.814,1.354,0.863,1.555,1.086,0.461,0.835,0.816,�k��,5.8,��
2018/01/30,17:40,0.817,1.354,0.865,1.553,1.089,0.463,0.835,0.817,�k��,6.2,��
2018/01/30,17:50,0.814,1.350,0.863,1.553,1.087,0.463,0.832,0.818,�k��,6.7,��
2018/01/30,18:00,0.814,1.351,0.863,1.555,1.087,0.459,0.834,0.818,�k��,5.8,��
2018/01/30,18:10,0.813,1.351,0.862,1.554,1.087,0.461,0.834,0.818,�k�k��,5.2,��
2018/01/30,18:20,0.815,1.351,0.862,1.554,1.087,0.462,0.834,0.816,�k��,4.1,��
2018/01/30,18:30,0.815,1.352,0.860,1.551,1.085,0.461,0.835,0.815,�k�k��,2.8,��
2018/01/30,18:40,0.814,1.352,0.860,1.551,1.086,0.461,0.832,0.817,�k��,3.8,��
2018/01/30,18:50,0.812,1.352,0.860,1.551,1.087,0.461,0.834,0.819,�k��,3.8,��
2018/01/30,19:00,0.814,1.351,0.863,1.554,1.089,0.462,0.834,0.819,�k��,4.1,��
2018/01/30,19:10,0.814,1.352,0.862,1.551,1.085,0.461,0.833,0.817,�k��,4.2,��
2018/01/30,19:20,0.814,1.351,0.862,1.551,1.089,0.462,0.833,0.817,�k�k��,4.5,��
2018/01/30,19:30,0.812,1.350,0.863,1.553,1.086,0.461,0.834,0.817,�k�k��,5.1,��
2018/01/30,19:40,0.812,1.350,0.861,1.553,1.088,0.462,0.834,0.818,�k�k��,5.0,��
2018/01/30,19:50,0.814,1.350,0.862,1.551,1.085,0.460,0.836,0.815,�k�k��,5.0,��
2018/01/30,20:00,0.813,1.350,0.861,1.555,1.086,0.462,0.833,0.816,�k�k��,5.5,��
2018/01/30,20:10,0.814,1.353,0.862,1.554,1.085,0.462,0.834,0.817,�k��,5.0,��
2018/01/30,20:20,0.812,1.351,0.860,1.554,1.086,0.460,0.835,0.817,�k��,4.6,��
2018/01/30,20:30,0.811,1.350,0.861,1.553,1.085,0.461,0.833,0.817,�k��,5.2,��
2018/01/30,20:40,0.811,1.349,0.860,1.554,1.085,0.460,0.833,0.818,�k��,5.5,��
2018/01/30,20:50,0.811,1.354,0.861,1.553,1.085,0.460,0.833,0.818,�k��,4.4,��
2018/01/30,21:00,0.812,1.349,0.862,1.554,1.086,0.460,0.834,0.817,���k��,3.8,��
2018/01/30,21:10,0.812,1.349,0.860,1.553,1.085,0.461,0.833,0.816,��,3.7,��
2018/01/30,21:20,0.811,1.349,0.860,1.552,1.084,0.462,0.833,0.817,��,5.9,��
2018/01/30,21:30,0.811,1.350,0.860,1.553,1.081,0.461,0.833,0.817,���쐼,5.7,��
2018/01/30,21:40,0.810,1.350,0.861,1.554,1.083,0.463,0.834,0.817,���쐼,5.8,��
2018/01/30,21:50,0.812,1.350,0.862,1.552,1.085,0.461,0.834,0.816,��,5.7,��
2018/01/30,22:00,0.811,1.348,0.862,1.552,1.083,0.461,0.833,0.817,��,5.8,��
2018/01/30,22:10,0.812,1.348,0.860,1.554,1.084,0.462,0.833,0.817,��,6.7,��
2018/01/30,22:20,0.811,1.347,0.859,1.552,1.083,0.461,0.833,0.818,���k��,7.4,��
2018/01/30,22:30,0.811,1.350,0.859,1.553,1.082,0.462,0.834,0.817,���k��,8.0,��
2018/01/30,22:40,0.812,1.350,0.860,1.553,1.085,0.461,0.834,0.815,���k��,8.2,��
2018/01/30,22:50,0.811,1.350,0.859,1.551,1.082,0.463,0.833,0.818,���k��,8.4,��
2018/01/30,23:00,0.809,1.348,0.860,1.552,1.084,0.461,0.835,0.818,���k��,7.5,��
2018/01/30,23:10,0.811,1.350,0.858,1.554,1.084,0.459,0.834,0.817,���k��,7.5,��
2018/01/30,23:20,0.810,1.347,0.862,1.550,1.083,0.460,0.833,0.820,���k��,7.0,��
2018/01/30,23:30,0.812,1.350,0.860,1.553,1.086,0.462,0.834,0.818,��,6.4,��
2018/01/30,23:40,0.811,1.348,0.860,1.552,1.086,0.464,0.834,0.818,���k��,6.5,��
2018/01/30,23:50,0.813,1.348,0.862,1.554,1.084,0.463,0.834,0.817,���k��,6.0,��
